"Pseudo-MPEC" for P10Rx6t

Created 2019 Sep 17 12:07:06 UT using Find_Orb

Click here for an explanation of pseudo-MPECs

 
 Astrometry: 
     P10Rx6t  C2019 09 10[w^G*+OK$(?a+D#2f.'FLS1mNYoyAstrometryC_%%6d@I0k'80hF51
     P10Rx6t  C2019 09 10x.EdtTkAZD,'r?wLbredacted;6+clickgLIHGMXlTJWweBg`P2'F51
     P10Rx6t  C2019 09 100Wgl),C/nY;6+^RkpEtwwg?'JPb4aOk[ITP\ohere@hh$tforYNsF51
     P10Rx6t  C2019 09 103O0explanationSq*qxTHaB/jITL/0cXP+F.%Z\Sm8(XlybcRpemF51

Station data:
(F51) Pan-STARRS 1, Haleakala  (N20.707235 W156.255910)  US/Hawaii.
   Observers N. Primak, A. Schultz, S. Watters, J. Thiel, T. Goggia. Measurer
   PS1 Science Consortium. 1.8-m Ritchey-Chrétien + CCD.

Orbital elements:  P10Rx6t
   Perihelion 2019 Jun 19.346172 +/- 83.3 TT =  8:18:29 (JD 2458653.846172)
Epoch 2019 Sep 11.0 TT = JDT 2458737.5   Earth MOID: 0.6086   AutoNEOCP
M  23.28438141 +/- 70               (J2000 ecliptic)
n   0.27834208 +/- 0.435            Peri.  267.97628 +/- 110
a   2.32318321 +/- 2.42             Node    52.23683 +/- 29
e   0.3997093 +/- 0.239             Incl.   24.17618 +/- 29
P   3.54                   H 19.6   G  0.15   U 12.2  SR
q 1.39458522 +/- 0.664    Q 3.25178119 +/- 31.2
From 4 observations 2019 Sept. 10 (54.3 min); mean residual 0".06
Residuals in arcseconds: 
190910 F51  .04-  .02-    190910 F51  .04-  .10-    
190910 F51  .09+  .07+    190910 F51  .00   .04+    

Ephemerides (geocentric):
Date (UTC) HH   RA              Dec         delta   r     elong  mag " sig PA
---- -- -- --  -------------   -----------  ------ ------ -----  --- ---- ---
2019 09 17 12  03 51 18.227   -05 19 09.82  .88243 1.6090 116.8 21.8  48d 175
2019 09 17 13  03 51 17.804   -05 18 44.82  .88226 1.6092 116.8 21.8  48d 175
2019 09 17 14  03 51 17.375   -05 18 19.80  .88210 1.6094 116.9 21.8  48d 175
2019 09 17 15  03 51 16.941   -05 17 54.77  .88193 1.6096 116.9 21.8  48d 175
2019 09 17 16  03 51 16.501   -05 17 29.73  .88176 1.6097 117.0 21.8  48d 176
2019 09 17 17  03 51 16.055   -05 17 04.69  .88159 1.6099 117.0 21.8  48d 176
2019 09 17 18  03 51 15.604   -05 16 39.63  .88142 1.6101 117.0 21.8  48d 176
2019 09 17 19  03 51 15.148   -05 16 14.57  .88126 1.6103 117.1 21.8  48d 176
2019 09 17 20  03 51 14.686   -05 15 49.49  .88109 1.6104 117.1 21.8  48d 176
2019 09 17 21  03 51 14.218   -05 15 24.41  .88092 1.6106 117.1 21.8  48d 176
2019 09 17 22  03 51 13.745   -05 14 59.31  .88075 1.6108 117.2 21.8  48d 176
2019 09 17 23  03 51 13.267   -05 14 34.21  .88059 1.6109 117.2 21.8  48d 176
2019 09 18 00  03 51 12.783   -05 14 09.10  .88042 1.6111 117.3 21.8  48d 176
2019 09 18 01  03 51 12.293   -05 13 43.97  .88025 1.6113 117.3 21.8  48d 176
2019 09 18 02  03 51 11.798   -05 13 18.84  .88008 1.6115 117.3 21.8  48d 176
2019 09 18 03  03 51 11.297   -05 12 53.70  .87992 1.6116 117.4 21.8  48d 176
2019 09 18 04  03 51 10.791   -05 12 28.55  .87975 1.6118 117.4 21.8  48d 176
2019 09 18 05  03 51 10.280   -05 12 03.38  .87958 1.6120 117.4 21.8  48d 176
2019 09 18 06  03 51 09.762   -05 11 38.21  .87942 1.6122 117.5 21.8  48d 176
2019 09 18 07  03 51 09.239   -05 11 13.03  .87925 1.6123 117.5 21.8  49d 175
2019 09 18 08  03 51 08.711   -05 10 47.84  .87908 1.6125 117.6 21.8  49d 175
2019 09 18 09  03 51 08.177   -05 10 22.63  .87892 1.6127 117.6 21.8  49d 174
2019 09 18 10  03 51 07.638   -05 09 57.42  .87875 1.6129 117.6 21.8  50d 174
2019 09 18 11  03 51 07.093   -05 09 32.20  .87858 1.6130 117.7 21.8  50d 174
2019 09 18 12  03 51 06.542   -05 09 06.97  .87842 1.6132 117.7 21.8  51d 174
2019 09 18 13  03 51 05.986   -05 08 41.72  .87825 1.6134 117.8 21.8  51d 175
2019 09 18 14  03 51 05.425   -05 08 16.47  .87809 1.6136 117.8 21.8  51d 175
2019 09 18 15  03 51 04.857   -05 07 51.21  .87792 1.6137 117.8 21.8  51d 175
2019 09 18 16  03 51 04.285   -05 07 25.94  .87775 1.6139 117.9 21.8  51d 175
2019 09 18 17  03 51 03.706   -05 07 00.65  .87759 1.6141 117.9 21.8  51d 175
2019 09 18 18  03 51 03.122   -05 06 35.36  .87742 1.6143 117.9 21.8  51d 175
2019 09 18 19  03 51 02.533   -05 06 10.06  .87726 1.6144 118.0 21.8  51d 175
2019 09 18 20  03 51 01.938   -05 05 44.74  .87709 1.6146 118.0 21.8  51d 175
2019 09 18 21  03 51 01.337   -05 05 19.42  .87693 1.6148 118.1 21.8  51d 175
2019 09 18 22  03 51 00.731   -05 04 54.09  .87676 1.6150 118.1 21.8  51d 175
2019 09 18 23  03 51 00.119   -05 04 28.74  .87660 1.6151 118.1 21.8  51d 175
2019 09 19 00  03 50 59.502   -05 04 03.39  .87643 1.6153 118.2 21.8  51d 175
2019 09 19 01  03 50 58.879   -05 03 38.02  .87626 1.6155 118.2 21.8  51d 175
2019 09 19 02  03 50 58.251   -05 03 12.65  .87610 1.6157 118.2 21.8  51d 175
2019 09 19 03  03 50 57.617   -05 02 47.26  .87593 1.6158 118.3 21.8  52d 175
2019 09 19 04  03 50 56.977   -05 02 21.86  .87577 1.6160 118.3 21.8  52d 175
2019 09 19 05  03 50 56.332   -05 01 56.46  .87560 1.6162 118.4 21.8  52d 174
2019 09 19 06  03 50 55.681   -05 01 31.04  .87544 1.6164 118.4 21.8  53d 174
2019 09 19 07  03 50 55.025   -05 01 05.61  .87528 1.6165 118.4 21.8  53d 174
2019 09 19 08  03 50 54.363   -05 00 40.17  .87511 1.6167 118.5 21.8  53d 175
2019 09 19 09  03 50 53.695   -05 00 14.72  .87495 1.6169 118.5 21.8  53d 175
2019 09 19 10  03 50 53.022   -04 59 49.27  .87478 1.6171 118.6 21.8  53d 175
2019 09 19 11  03 50 52.343   -04 59 23.80  .87462 1.6172 118.6 21.8  53d 175